Location: Mount Airy
(36.4990°N, 80.6080°W)
Time: 11:30:11
(UTC-04:00)

ISS - Visible Passes

Search period start: 22 June 2018 00:00
Search period end: 02 July 2018 00:00
Orbit: 402 x 408 km, 51.6° (Epoch: 23 June)

Date Brightness Start Highest point End Pass type
(mag) Time Alt. Az. Time Alt. Az. Time Alt. Az.
28 Jun -1.0 05:28:30 10° SSE 05:29:35 11° SE 05:30:40 10° ESE visible
30 Jun -2.3 05:18:38 10° SSW 05:21:32 29° SE 05:24:28 10° ENE visible
01 Jul -1.5 04:28:24 13° SSE 04:29:34 15° SE 04:31:30 10° E visible
